Time,TemperatureF,DewpointF,PressureIn,WindDirection,WindDirectionDegrees,WindSpeedMPH,WindSpeedGustMPH,Humidity,HourlyPrecipIn,Conditions,Clouds,dailyrainin,SoftwareType,DateUTC
2013-08-04 00:12:00,66.0,55.0,30.01,SSW,200,5.0,-999.0,68,-99.99,,,-99.99,,2013-08-04 07:12:00,
2013-08-04 00:22:00,66.0,55.0,30.01,SSW,200,5.0,-999.0,68,-99.99,,,-99.99,,2013-08-04 07:22:00,
2013-08-04 00:32:00,66.0,55.0,30.01,SSW,200,5.0,-999.0,68,-99.99,,,-99.99,,2013-08-04 07:32:00,
2013-08-04 00:52:00,66.0,55.0,30.01,North,0,0.0,-999.0,68,-99.99,,,-99.99,,2013-08-04 07:52:00,
2013-08-04 01:22:00,63.0,55.0,30.01,South,190,3.0,-999.0,77,-99.99,,,-99.99,,2013-08-04 08:22:00,
2013-08-04 01:32:00,63.0,55.0,30.01,South,190,3.0,-999.0,77,-99.99,,,-99.99,,2013-08-04 08:32:00,
2013-08-04 01:53:00,63.0,54.0,30.01,SSW,200,3.0,-999.0,72,-99.99,,,-99.99,,2013-08-04 08:53:00,
2013-08-04 02:12:00,61.0,54.0,30.01,North,0,0.0,-999.0,77,-99.99,,,-99.99,,2013-08-04 09:12:00,
2013-08-04 02:22:00,61.0,54.0,30.01,North,0,0.0,-999.0,77,-99.99,,,-99.99,,2013-08-04 09:22:00,
2013-08-04 02:32:00,61.0,54.0,30.01,North,0,0.0,-999.0,77,-99.99,,,-99.99,,2013-08-04 09:32:00,
2013-08-04 03:12:00,59.0,54.0,30.02,South,180,5.0,-999.0,82,-99.99,,,-99.99,,2013-08-04 10:12:00,
2013-08-04 03:22:00,59.0,54.0,30.02,South,180,5.0,-999.0,82,-99.99,,,-99.99,,2013-08-04 10:22:00,
2013-08-04 03:32:00,59.0,54.0,30.02,South,180,5.0,-999.0,82,-99.99,,,-99.99,,2013-08-04 10:32:00,
2013-08-04 03:53:00,59.0,54.0,30.01,South,180,3.0,-999.0,82,-99.99,,,-99.99,,2013-08-04 10:53:00,
2013-08-04 04:22:00,57.0,54.0,30.01,North,0,0.0,-999.0,87,-99.99,,,-99.99,,2013-08-04 11:22:00,
2013-08-04 04:32:00,57.0,54.0,30.01,North,0,0.0,-999.0,87,-99.99,,,-99.99,,2013-08-04 11:32:00,
2013-08-04 04:53:00,57.0,54.0,30.02,SSW,200,3.0,-999.0,87,-99.99,,,-99.99,,2013-08-04 11:53:00,
2013-08-04 05:12:00,59.0,52.0,30.02,SSW,200,5.0,-999.0,77,-99.99,,,-99.99,,2013-08-04 12:12:00,
2013-08-04 05:22:00,59.0,52.0,30.02,SSW,200,5.0,-999.0,77,-99.99,,,-99.99,,2013-08-04 12:22:00,
2013-08-04 05:32:00,59.0,52.0,30.02,SSW,200,5.0,-999.0,77,-99.99,,,-99.99,,2013-08-04 12:32:00,
2013-08-04 05:53:00,57.0,52.0,30.02,SSW,210,5.0,-999.0,82,-99.99,,,-99.99,,2013-08-04 12:53:00,
2013-08-04 06:22:00,57.0,52.0,30.02,SSW,200,3.0,-999.0,82,-99.99,,,-99.99,,2013-08-04 13:22:00,
2013-08-04 06:32:00,57.0,52.0,30.02,SSW,200,3.0,-999.0,82,-99.99,,,-99.99,,2013-08-04 13:32:00,
2013-08-04 06:52:00,55.0,52.0,30.03,North,0,0.0,-999.0,87,-99.99,,,-99.99,,2013-08-04 13:52:00,
2013-08-04 07:12:00,57.0,52.0,30.04,North,0,0.0,-999.0,82,-99.99,,,-99.99,,2013-08-04 14:12:00,
2013-08-04 07:22:00,57.0,52.0,30.04,North,0,0.0,-999.0,82,-99.99,,,-99.99,,2013-08-04 14:22:00,
2013-08-04 07:32:00,57.0,52.0,30.04,North,0,0.0,-999.0,82,-99.99,,,-99.99,,2013-08-04 14:32:00,
2013-08-04 07:53:00,59.0,54.0,30.04,South,180,5.0,-999.0,82,-99.99,,,-99.99,,2013-08-04 14:53:00,
2013-08-04 08:02:00,59.0,54.0,30.04,South,180,5.0,-999.0,82,-99.99,,,-99.99,,2013-08-04 15:02:00,
2013-08-04 08:12:00,59.0,54.0,30.04,South,180,5.0,-999.0,82,-99.99,,,-99.99,,2013-08-04 15:12:00,
2013-08-04 08:22:00,61.0,54.0,30.04,South,180,5.0,-999.0,77,-99.99,,,-99.99,,2013-08-04 15:22:00,
2013-08-04 08:32:00,61.0,54.0,30.04,South,180,5.0,-999.0,77,-99.99,,,-99.99,,2013-08-04 15:32:00,
2013-08-04 08:53:00,63.0,54.0,30.04,South,180,5.0,-999.0,72,-99.99,,,-99.99,,2013-08-04 15:53:00,
2013-08-04 09:22:00,66.0,55.0,30.04,North,0,0.0,-999.0,68,-99.99,,,-99.99,,2013-08-04 16:22:00,
2013-08-04 09:32:00,66.0,55.0,30.04,North,0,0.0,-999.0,68,-99.99,,,-99.99,,2013-08-04 16:32:00,
2013-08-04 09:53:00,68.0,55.0,30.04,North,0,0.0,-999.0,64,-99.99,,,-99.99,,2013-08-04 16:53:00,
2013-08-04 10:12:00,70.0,55.0,30.02,North,0,0.0,-999.0,60,-99.99,,,-99.99,,2013-08-04 17:12:00,
2013-08-04 10:22:00,70.0,55.0,30.02,North,0,0.0,-999.0,60,-99.99,,,-99.99,,2013-08-04 17:22:00,
2013-08-04 10:32:00,70.0,55.0,30.02,North,0,0.0,-999.0,60,-99.99,,,-99.99,,2013-08-04 17:32:00,
2013-08-04 10:53:00,73.0,55.0,30.02,North,0,0.0,-999.0,53,-99.99,,,-99.99,,2013-08-04 17:53:00,
2013-08-04 11:22:00,77.0,57.0,30.01,North,0,0.0,-999.0,50,-99.99,,,-99.99,,2013-08-04 18:22:00,
2013-08-04 11:33:00,77.0,57.0,30.01,North,0,0.0,-999.0,50,-99.99,,,-99.99,,2013-08-04 18:33:00,
2013-08-04 11:52:00,77.0,57.0,30.00,North,0,0.0,-999.0,50,-99.99,,,-99.99,,2013-08-04 18:52:00,
2013-08-04 12:22:00,82.0,55.0,29.99,North,0,0.0,-999.0,39,-99.99,,,-99.99,,2013-08-04 19:22:00,
2013-08-04 12:33:00,82.0,55.0,29.99,North,0,0.0,-999.0,39,-99.99,,,-99.99,,2013-08-04 19:33:00,
2013-08-04 12:53:00,84.0,55.0,29.98,NNE,30,5.0,-999.0,37,-99.99,,,-99.99,,2013-08-04 19:53:00,
2013-08-04 13:22:00,86.0,54.0,29.96,North,360,3.0,-999.0,33,-99.99,,,-99.99,,2013-08-04 20:22:00,
2013-08-04 13:33:00,86.0,54.0,29.96,North,360,3.0,-999.0,33,-99.99,,,-99.99,,2013-08-04 20:33:00,
2013-08-04 13:53:00,88.0,52.0,29.96,NNE,30,5.0,-999.0,29,-99.99,,,-99.99,,2013-08-04 20:53:00,
2013-08-04 14:12:00,88.0,52.0,29.95,NNW,340,6.0,-999.0,29,-99.99,,,-99.99,,2013-08-04 21:12:00,
2013-08-04 14:22:00,88.0,52.0,29.95,NNW,340,6.0,-999.0,29,-99.99,,,-99.99,,2013-08-04 21:22:00,
2013-08-04 14:32:00,88.0,52.0,29.95,NNW,340,6.0,-999.0,29,-99.99,,,-99.99,,2013-08-04 21:32:00,
2013-08-04 14:53:00,90.0,50.0,29.94,North,0,0.0,-999.0,25,-99.99,,,-99.99,,2013-08-04 21:53:00,
2013-08-04 15:22:00,90.0,50.0,29.92,NNE,30,3.0,-999.0,25,-99.99,,,-99.99,,2013-08-04 22:22:00,
2013-08-04 15:32:00,90.0,50.0,29.92,NNE,30,3.0,-999.0,25,-99.99,,,-99.99,,2013-08-04 22:32:00,
2013-08-04 15:53:00,91.0,52.0,29.91,North,0,0.0,-999.0,26,-99.99,,,-99.99,,2013-08-04 22:53:00,
2013-08-04 16:11:00,91.0,50.0,29.90,West,260,3.0,-999.0,24,-99.99,,,-99.99,,2013-08-04 23:11:00,
2013-08-04 16:22:00,91.0,50.0,29.90,West,260,3.0,-999.0,24,-99.99,,,-99.99,,2013-08-04 23:22:00,
2013-08-04 16:32:00,91.0,50.0,29.90,West,260,3.0,-999.0,24,-99.99,,,-99.99,,2013-08-04 23:32:00,
2013-08-04 16:53:00,91.0,52.0,29.89,NNW,340,6.0,-999.0,26,-99.99,,,-99.99,,2013-08-04 23:53:00,
2013-08-04 17:12:00,91.0,54.0,29.88,North,360,5.0,-999.0,27,-99.99,,,-99.99,,2013-08-05 00:12:00,
2013-08-04 17:22:00,91.0,54.0,29.88,North,360,5.0,-999.0,27,-99.99,,,-99.99,,2013-08-05 00:22:00,
2013-08-04 17:32:00,91.0,54.0,29.88,North,360,5.0,-999.0,27,-99.99,,,-99.99,,2013-08-05 00:32:00,
2013-08-04 17:52:00,91.0,54.0,29.87,NW,320,7.0,-999.0,27,-99.99,,,-99.99,,2013-08-05 00:52:00,
2013-08-04 18:12:00,90.0,54.0,29.86,WNW,300,7.0,-999.0,29,-99.99,,,-99.99,,2013-08-05 01:12:00,
2013-08-04 18:22:00,90.0,54.0,29.86,WNW,300,7.0,-999.0,29,-99.99,,,-99.99,,2013-08-05 01:22:00,
2013-08-04 18:32:00,90.0,54.0,29.86,WNW,300,7.0,-999.0,29,-99.99,,,-99.99,,2013-08-05 01:32:00,
2013-08-04 18:52:00,88.0,57.0,29.86,WNW,290,5.0,-999.0,35,-99.99,,,-99.99,,2013-08-05 01:52:00,
2013-08-04 19:22:00,86.0,55.0,29.86,WNW,300,8.0,-999.0,35,-99.99,,,-99.99,,2013-08-05 02:22:00,
2013-08-04 19:32:00,86.0,55.0,29.86,WNW,300,8.0,-999.0,35,-99.99,,,-99.99,,2013-08-05 02:32:00,
2013-08-04 19:53:00,86.0,55.0,29.86,WNW,300,7.0,-999.0,35,-99.99,,,-99.99,,2013-08-05 02:53:00,
2013-08-04 20:12:00,82.0,57.0,29.87,WNW,300,7.0,-999.0,42,-99.99,,,-99.99,,2013-08-05 03:12:00,
2013-08-04 20:22:00,82.0,57.0,29.87,WNW,300,7.0,-999.0,42,-99.99,,,-99.99,,2013-08-05 03:22:00,
2013-08-04 20:32:00,82.0,57.0,29.87,WNW,300,7.0,-999.0,42,-99.99,,,-99.99,,2013-08-05 03:32:00,
2013-08-04 20:52:00,82.0,57.0,29.88,SW,230,3.0,-999.0,42,-99.99,,,-99.99,,2013-08-05 03:52:00,
2013-08-04 21:12:00,79.0,57.0,29.89,North,0,0.0,-999.0,47,-99.99,,,-99.99,,2013-08-05 04:12:00,
2013-08-04 21:22:00,79.0,57.0,29.89,North,0,0.0,-999.0,47,-99.99,,,-99.99,,2013-08-05 04:22:00,
2013-08-04 21:32:00,79.0,57.0,29.89,North,0,0.0,-999.0,47,-99.99,,,-99.99,,2013-08-05 04:32:00,
2013-08-04 21:52:00,77.0,57.0,29.90,North,0,0.0,-999.0,50,-99.99,,,-99.99,,2013-08-05 04:52:00,
2013-08-04 22:12:00,77.0,57.0,29.92,North,0,0.0,-999.0,50,-99.99,,,-99.99,,2013-08-05 05:12:00,
2013-08-04 22:22:00,77.0,57.0,29.92,North,0,0.0,-999.0,50,-99.99,,,-99.99,,2013-08-05 05:22:00,
2013-08-04 22:32:00,77.0,57.0,29.92,North,0,0.0,-999.0,50,-99.99,,,-99.99,,2013-08-05 05:32:00,
2013-08-04 22:53:00,72.0,57.0,29.92,North,0,0.0,-999.0,60,-99.99,,,-99.99,,2013-08-05 05:53:00,
2013-08-04 23:12:00,70.0,55.0,29.92,North,0,0.0,-999.0,60,-99.99,,,-99.99,,2013-08-05 06:12:00,
2013-08-04 23:22:00,70.0,55.0,29.92,North,0,0.0,-999.0,60,-99.99,,,-99.99,,2013-08-05 06:22:00,
2013-08-04 23:32:00,70.0,55.0,29.92,North,0,0.0,-999.0,60,-99.99,,,-99.99,,2013-08-05 06:32:00,
2013-08-04 23:52:00,68.0,57.0,29.93,North,0,0.0,-999.0,68,-99.99,,,-99.99,,2013-08-05 06:52:00,